Location: Moscow
(55.7500°N, 37.5830°E)
Time: 06:14:23
(UTC+03:00)

Transit 4A - Pass Details

Date: 07 December 2021
Orbit: 863 x 981 km, 66.8° (Epoch: 26 January)

Event Time Altitude Azimuth Distance (km) Brightness Sun altitude
Rises 20:06:25 0° 224° (SW) 3,474 11.3 -33.3°
Reaches altitude 10° 20:08:51 10° 225° (SW) 2,552 10.6 -33.6°
Enters shadow 20:12:24 39° 229° (SW) 1,329 8.9 -34.1°
